Enontekio current weather conditions

sailwx.info

Wind from 310 at 8 knots

Air temperature 6.0° C
Visibility: greater than 5.4 NM
Dewpoint 1.0° C

Last reported at 2020-May-29 20:50 UTC.
Time now 2020-May-29 22:04 UTC

Location: N 68°22' E 023°26'.
View on Google Maps.

See reports from other nearby stations

  
Tides and Currents Weather Stations Pressure Air Temp Water Temp Dewpoint Dewpoint Depression Visibility Wind Speed Wind Dir Waves Ship Positions
date/time (UTC)wind fromknots sea level pressurealtimeterstation pressurevisibilityair tempwater tempwave heightnotes
2020-May-29 20:50 310 8 5.4 6.0
2020-May-29 20:20 310 8 5.4 6.0
2020-May-29 19:50 310 7 5.4 6.0
2020-May-29 19:20 320 8 5.4 7.0
2020-May-29 18:50 300 9 5.4 7.0
2020-May-29 18:20 310 12 5.4 8.0
2020-May-29 17:50 300 6 5.4 8.0
2020-May-29 17:20 280 6 5.4 7.0
2020-May-29 16:50 290 6 5.4 8.0
2020-May-29 16:20 270 6 5.4 7.0
2020-May-29 15:50 270 7 5.4 7.0
2020-May-29 15:20 280 8 5.4 8.0
2020-May-29 14:50 280 9 5.4 8.0
2020-May-29 14:20 280 11 5.4 8.0
2020-May-29 13:50 270 11 5.4 8.0
2020-May-29 13:20 280 11 5.4 8.0
2020-May-29 12:50 270 9 5.4 8.0
2020-May-29 12:20 280 13 5.4 8.0
2020-May-29 11:50 280 12 5.4 8.0 Light rain.
2020-May-29 11:20 280 13 5.4 9.0
2020-May-29 10:50 280 13 5.4 9.0
2020-May-29 10:20 290 12 5.4 8.0 Light rain showers.
2020-May-29 09:50 280 13 5.4 8.0
2020-May-29 09:20 290 12 5.4 8.0
2020-May-29 08:50 260 13 5.4 8.0
2020-May-29 08:20 260 14 5.4 7.0
2020-May-29 07:50 250 12 5.4 6.0
2020-May-29 07:20 250 11 5.4 6.0 Light rain showers.
2020-May-29 06:50 260 8 5.4 6.0
2020-May-29 06:20 250 7 5.4 5.0 Light rain showers.
2020-May-29 05:50 250 11 5.4 5.0 Light rain showers.
2020-May-29 05:20 250 11 5.4 5.0 Light rain.
2020-May-29 04:50 240 9 5.4 5.0
2020-May-29 04:20 240 8 5.4 5.0
2020-May-29 03:50 230 8 5.4 5.0
2020-May-29 03:20 240 8 5.4 5.0
2020-May-29 02:50 240 7 5.4 5.0
2020-May-29 02:20 240 2 5.4 5.0
2020-May-29 01:50 220 4 5.4 4.0
2020-May-29 01:20 220 2 5.4 4.0
2020-May-29 00:50 120 4 5.4 3.0
2020-May-29 00:20 5.4 3.0
2020-May-28 23:50 230 4 5.4 4.0
2020-May-28 23:20 260 4 5.4 4.0
2020-May-28 22:50 260 6 5.4 4.0
2020-May-28 22:20 250 7 5.4 4.0
2020-May-28 21:50 260 6 5.4 4.0
2020-May-28 21:20 260 6 5.4 4.0
2020-May-28 20:50 250 7 5.4 5.0
2020-May-28 20:20 230 5 5.4 5.0
2020-May-28 19:50 260 6 5.4 6.0
2020-May-28 19:20 260 8 5.4 6.0
2020-May-28 18:50 280 6 5.4 7.0
2020-May-28 18:20 280 11 5.4 7.0
2020-May-28 17:50 280 8 5.4 7.0
2020-May-28 17:20 280 8 5.4 8.0
2020-May-28 16:50 270 9 5.4 8.0
2020-May-28 16:20 290 11 5.4 9.0
2020-May-28 15:50 280 11 5.4 8.0
2020-May-28 15:20 270 11 5.4 9.0
2020-May-28 14:50 290 13 5.4 9.0
2020-May-28 14:20 290 13 5.4 8.0
2020-May-28 13:50 290 13 5.4 9.0
2020-May-28 13:20 290 12 5.4 9.0
2020-May-28 12:50 280 13 5.4 9.0
2020-May-28 12:20 280 13 5.4 9.0
2020-May-28 11:50 290 12 5.4 9.0
2020-May-28 11:20 280 9 5.4 9.0
2020-May-28 10:50 260 12 5.4 8.0
2020-May-28 10:20 270 13 5.4 8.0
2020-May-28 09:50 290 13 5.4 9.0
2020-May-28 09:20 280 13 5.4 8.0
2020-May-28 08:50 290 12 5.4 8.0
2020-May-28 08:20 290 15 5.4 8.0
2020-May-28 07:50 280 13 5.4 8.0
2020-May-28 07:20 290 13 5.4 7.0
2020-May-28 06:50 280 12 5.4 7.0
2020-May-28 06:20 290 13 5.4 7.0
2020-May-28 05:50 270 8 5.4 6.0
2020-May-28 05:20 270 9 5.4 5.0
2020-May-28 04:50 260 8 5.4 5.0
2020-May-28 04:20 270 6 5.4 5.0
2020-May-28 03:50 290 9 5.4 5.0
2020-May-28 03:20 290 7 5.4 5.0
2020-May-28 02:50 5.4 4.0
2020-May-28 02:20 240 6 5.4 3.0
2020-May-28 01:50 240 6 5.4 3.0
2020-May-28 01:20 240 7 5.4 3.0
2020-May-28 00:50 250 7 5.4 2.0
2020-May-28 00:20 260 6 5.4 2.0
2020-May-27 23:50 250 7 5.4 2.0
2020-May-27 23:20 250 6 5.4 2.0
2020-May-27 22:50 270 6 5.4 3.0
2020-May-27 22:20 260 7 5.4 4.0